Welcome to the New NWS' Forecast!
Most changes are behind the scenes, but click here for differences you might notice.
Latest weather observations around

Alexander City, Thomas C Russell Field Airport (KALX)

Using English Units (Switch to International System of Units)
Date/ Time (CST) Wind (mph) Vis. (mi) Weather Sky Cond. Temp (°F) Rel. Humidity Wind Chill (°F) Heat Index (°F) Pressure Precip. (in)
Air Dwpt 6 hour Altimeter (inHg) Sea level (inHg) 1 hr 3 hr 6 hr
Max Min
Jan 23 13:15 WNW 10 10 Clear CLR 54 37     52%     30.05        
Jan 23 12:55 W 14 10 Clear CLR 54 36     52%     30.05        
Jan 23 12:35 W 11 10 Clear CLR 54 36     52%     30.05        
Jan 23 12:15 W 8 10 Clear CLR 53 35     52%     30.05        
Jan 23 11:55 W 13 10 Clear CLR 53 36     52%     30.06        
Jan 23 11:35 W 11 10 Clear CLR 53 36     52%     30.07        
Jan 23 11:15 WSW 14 10 Clear CLR 52 35     53%     30.07        
Jan 23 10:55 W 13 10 Clear CLR 51 35     54%     30.08        
Jan 23 10:35 WNW 8 10 Clear CLR 50 35     56% 47   30.09        
Jan 23 10:15 WNW 11 10 Clear CLR 50 35     57% 45   30.08        
Jan 23 09:55 W 11 10 Clear CLR 49 35     58% 45   30.08        
Jan 23 09:35 NW 10 10 Clear CLR 49 35     59% 44   30.08        
Jan 23 09:15 WNW 14 10 Clear CLR 47 35     61% 42   30.07        
Jan 23 08:55 WNW 8 10 Clear CLR 47 36     66% 43   30.06        
Jan 23 08:35 W 7 10 Clear CLR 46 37     71% 42   30.05        
Jan 23 08:15 SW 3 10 Clear CLR 44 36     73% 43   30.04        
Jan 23 07:55 Calm 10 Clear CLR 42 36     79%     30.04        
Jan 23 07:35 Calm 10 Clear CLR 39 36     89%     30.03        
Jan 23 07:15 Calm 10 Clear CLR 37 37     100%     30.03        
Jan 23 06:55 Calm 10 Clear CLR 35 35     100%     30.02        
Jan 23 06:35 Calm 10 Clear CLR 36 36     100%     30.02        
Jan 23 06:15 Calm 10 Clear CLR 38 37     99%     30.01        
Jan 23 05:55 Calm 10 Clear CLR 40 37     86%     30        
Jan 23 05:35 Calm 10 Clear CLR 40 37     89%     30        
Jan 23 05:15 Calm 10 Clear CLR 40 37     88%     29.99        
Jan 23 04:55 Calm 10 Clear CLR 44 36     75%     29.99        
Jan 23 04:35 W 5 10 Clear CLR 45 36     69% 43   29.98        
Jan 23 04:15 W 5 10 Clear CLR 46 36     70% 44   29.98        
Jan 23 03:55 W 3 10 Clear CLR 47 36     67% 46   29.97        
Jan 23 03:35 WNW 6 10 Clear CLR 48 36     64% 45   29.97        
Jan 23 03:15 W 8 10 Clear CLR 49 37     64% 45   29.97        
Jan 23 02:55 W 6 10 Clear CLR 49 38     64% 47   29.97        
Jan 23 02:35 W 8 10 Clear CLR 50 38     64%     29.96        
Jan 23 02:15 W 8 10 Partly Cloudy SCT050 51 39     63%     29.96        
Jan 23 01:55 W 7 10 Mostly Cloudy BKN050 52 40     63%     29.96        
Jan 23 01:35 W 10 10 Mostly Cloudy BKN050 53 42     65%     29.95        
Jan 23 01:15 W 7 10 Mostly Cloudy BKN050 54 47     75%     29.95        
Jan 23 00:55 WNW 5 10 Clear CLR 55 50     84%     29.94        
Jan 23 00:35 W 10 10 Partly Cloudy SCT022 SCT027 SCT039 57 54     89%     29.94        
Jan 23 00:15 W 11 10 Mostly Cloudy SCT015 SCT020 BKN030 60 56     89%     29.93        
Jan 23 00:00 WSW 9 10 Mostly Cloudy SCT016 BKN024 BKN031 61 61     100%     29.93        
Jan 22 23:35 WSW 9 10 Cloudy BKN014 BKN022 OVC041 61 61     100%     29.92        
Jan 22 23:15 SW 11 10 Cloudy BKN012 BKN024 OVC029 61 61     100%     29.91        
Jan 22 22:55 WSW 9 10 Cloudy BKN012 OVC017 61 61     100%     29.91        
Jan 22 22:35 WSW 9 10 Cloudy BKN010 OVC015 62 62     100%     29.92        
Jan 22 22:15 SW 8 10 Cloudy OVC008 61 61     100%     29.91        
Jan 22 21:55 SSW 7 10 Cloudy OVC008 61 61     100%     29.91        
Jan 22 21:35 S 8 10 Cloudy BKN005 OVC010 61 61     100%     29.91        
Jan 22 21:15 SSW 6 10 Cloudy BKN005 OVC019 60 60     100%     29.92        
Jan 22 20:55 SSW 5 10 Cloudy SCT005 BKN021 OVC031 60 60     100%     29.92     0  
Notice The following observation data may not be complete
Jan 22 20:35   10 Light Rain SCT007 BKN021 OVC034          %              
Jan 22 20:15 SSW 7 10 Cloudy BKN019 BKN029 OVC042 60 60     100%     29.93        
Jan 22 19:55 S 3 10 Cloudy SCT017 SCT022 OVC032 59 59     100%     29.92        
Jan 22 19:35 SSE 3 7 Cloudy SCT004 BKN032 OVC042 59 59     100%     29.93        
Jan 22 19:15 S 3 7 Cloudy OVC004 59 59     100%     29.93        
Jan 22 18:55 SSE 6 7 Cloudy BKN004 BKN033 OVC043 60 60     100%     29.93   0    
Jan 22 18:30 Calm 10 Mostly Cloudy BKN033 BKN041 BKN055 60 60     100%     29.92        
Jan 22 18:15 SSE 3 7 Light Drizzle BKN033 BKN039 OVC050 60 60     100%     29.92        
Jan 22 17:55 SSE 3 4 Light Rain SCT008 SCT013 OVC033 60 60     100%     29.91   0   1
Jan 22 17:35 Calm 2 Rain SCT005 BKN009 OVC035 59 59     100%     29.91   0    
Jan 22 17:15 Calm 2.5 Cloudy SCT006 BKN032 OVC038 60 60     100%     29.9   0    
Jan 22 16:55 Calm 3 Rain SCT006 BKN011 OVC036 60 60     100%     29.9   0    
Jan 22 16:35 NE 3 2.5 Cloudy BKN009 BKN017 OVC029 60 60     100%     29.9   0    
Jan 22 16:15 SE 7 2 Heavy Rain SCT003 OVC008 60 60     100%     29.89   0    
Jan 22 15:55 ESE 3 1.75 Heavy Rain SCT006 OVC014 59 59     100%     29.9   0    
Jan 22 15:35 SE 6 3 Thunderstorms and Heavy Rain BKN009 OVC015 59 59     100%     29.89   0    
Jan 22 15:15 ESE 7 3 Rain BKN009 OVC017 58 58     100%     29.9   0    
Jan 22 14:55 Calm 4 Light Rain SCT005 BKN009 OVC017 58 58     100%     29.9   0 0  
Jan 22 14:35 SSE 5 5 Rain SCT005 BKN009 OVC019 58 58     100%     29.92   0    
Jan 22 13:15 SSE 5 10 Cloudy OVC021 60 57     90%     29.96        
Jan 22 12:55 ESE 3 10 Mostly Cloudy BKN021 BKN030 60 57     89%     29.96        
Jan 22 12:35 SE 5 10 Mostly Cloudy BKN021 BKN030 BKN043 60 56     88%     29.97        
Jan 22 12:15 SE 3 10 Mostly Cloudy BKN019 BKN033 BKN044 60 56     88%     29.98        
Jan 22 11:55 SSE 6 10 Mostly Cloudy SCT021 BKN026 BKN034 59 56     87%     29.99        
Jan 22 11:35 SE 3 10 Cloudy SCT021 BKN027 OVC032 58 55     89%     30.01        
Jan 22 11:15 SE 6 10 Mostly Cloudy BKN021 BKN036 BKN090 58 55     88%     30.02        
Jan 22 10:55 SSE 3 10 Light Drizzle BKN021 BKN026 BKN038 58 55     88%     30.04        
Jan 22 10:35 SSE 5 10 Light Rain BKN023 BKN036 58 54     87%     30.05        
Jan 22 10:15 SSE 6 10 Mostly Cloudy BKN023 BKN038 58 54     85%     30.06        
Jan 22 09:55 SSE 6 10 Mostly Cloudy BKN023 BKN038 58 53     84%     30.06        
Jan 22 09:35 SSE 5 10 Mostly Cloudy BKN023 56 51     83%     30.07        
Jan 22 09:15 S 3 10 Mostly Cloudy BKN025 BKN030 55 49     80%     30.07        
Jan 22 08:55 SSE 3 10 Cloudy BKN027 OVC032 55 47     77%     30.06        
Jan 22 08:35 SSE 5 10 Mostly Cloudy SCT025 BKN030 54 47     76%     30.07        
Jan 22 08:15 SE 6 7 Mostly Cloudy SCT025 BKN032 52 46     80%     30.05        
Jan 22 07:55 Calm 10 Mostly Cloudy BKN027 49 46     90%     30.07        
Notice The following observation data may not be complete
Jan 22 07:35   10 Cloudy OVC027          %              
Jan 22 07:15 Calm 10 Cloudy OVC027 48 45     90%     30.08        
Jan 22 06:55 Calm 10 Cloudy OVC027 47 45     92%     30.07        
Jan 22 06:35 Calm 10 Mostly Cloudy BKN029 BKN033 48 44     87%     30.07        
Jan 22 06:15 Calm 10 Clear CLR 49 44     83%     30.07        
Jan 22 05:55 E 3 10 Clear CLR 50 44     79% 49   30.06        
Jan 22 05:35 ESE 3 10 Clear CLR 49 44     83% 49   30.06        
Jan 22 05:15 ESE 5 10 Clear CLR 48 45     87% 47   30.05        
Jan 22 04:55 E 3 10 Clear CLR 45 44     97% 43   30.05        
Jan 22 04:35 Calm 10 Clear CLR 44 44     100%     30.06        
Jan 22 04:15 Calm 10 Clear CLR 43 43     100%     30.07        
Jan 22 03:55 Calm 10 Clear CLR 43 43     100%     30.08        
Jan 22 03:35 Calm 10 Clear CLR 43 43     100%     30.08        
Jan 22 03:15 Calm 10 Clear CLR 43 43     100%     30.09        
Jan 22 02:55 Calm 10 Clear CLR 45 45     99%     30.07        
Jan 22 02:35 Calm 10 Clear CLR 45 45     97%     30.08        
Jan 22 02:15 Calm 10 Clear CLR 45 45     97%     30.08        
Jan 22 01:55 Calm 10 Clear CLR 45 44     97%     30.08        
Jan 22 01:35 Calm 10 Clear CLR 47 45     93%     30.08        
Jan 22 01:15 Calm 10 Clear CLR 45 45     100%     30.08        
Jan 22 00:55 Calm 10 Clear CLR 47 46     98%     30.09        
Jan 22 00:35 Calm 10 Clear CLR 46 46     100%     30.1        
Jan 22 00:15 Calm 10 Clear CLR 47 46     95%     30.11        
Jan 21 23:55 E 3 10 Clear CLR 47 46     95% 46   30.1        
Jan 21 23:35 Calm 10 Clear CLR 49 46     89%     30.12        
Jan 21 23:15 Calm 10 Clear CLR 50 46     88%     30.13        
Jan 21 22:55 SE 3 10 Clear CLR 49 46     92% 48   30.12        
Jan 21 22:35 Calm 10 Clear CLR 53 47     80%     30.14        
Jan 21 22:15 Calm 10 Clear CLR 53 47     81%     30.14        
Jan 21 21:55 SE 3 10 Clear CLR 53 47     82%     30.15        
Jan 21 21:35 SSE 3 10 Clear CLR 48 45     89% 48   30.15        
Jan 21 21:15 Calm 10 Clear CLR 45 44     97%     30.15        
Jan 21 20:55 Calm 10 Clear CLR 47 45     95%     30.14        
Jan 21 20:35 Calm 10 Clear CLR 49 47     92%     30.14        
Jan 21 20:15 Calm 10 Clear CLR 48 46     93%     30.15        
Jan 21 19:55 Calm 10 Clear CLR 50 47     89%     30.17        
Notice The following observation data may not be complete
Jan 21 19:35   10 Clear CLR          %              
Jan 21 19:15 Calm 10 Clear CLR 49 47     90%     30.16        
Jan 21 18:55 Calm 10 Clear CLR 51 47     86%     30.16        
Jan 21 18:35 Calm 10 Clear CLR 53 48     83%     30.16        
Jan 21 18:15 Calm 10 Clear CLR 54 48     81%     30.16        
Jan 21 17:55 Calm 10 Clear CLR 55 48     78%     30.16        
Jan 21 17:35 Calm 10 Clear CLR 58 49     72%     30.16        
Jan 21 17:15 Calm 10 Clear CLR 60 49     67%     30.16        
Jan 21 16:55 Calm 10 Clear CLR 63 49     60%     30.16        
Jan 21 16:35 SSE 3 10 Clear CLR 65 50     57%     30.15        
Jan 21 16:15 ESE 3 10 Clear CLR 67 50     54%     30.16        
Jan 21 15:55 SE 5 10 Clear CLR 67 50     54%     30.16        
Jan 21 15:35 SE 5 10 Clear CLR 68 50     53%     30.16        
Jan 21 15:15 SSW 8 10 Clear CLR 68 50     52%     30.16        
Jan 21 14:55 S 6 10 Clear CLR 68 50     53%     30.16        
Jan 21 14:35 SE 5 10 Clear CLR 68 50     53%     30.16        
Jan 21 14:15 SE 6 10 Clear CLR 67 50     53%     30.16        
Jan 21 13:55 SE 6 10 Clear CLR 66 49     54%     30.17        
Jan 21 13:35 SSE 7 10 Clear CLR 66 49     54%     30.17        
Jan 21 13:15 SE 8 10 Clear CLR 65 49     55%     30.18        
Jan 21 12:55 SE 6 10 Clear CLR 64 48     56%     30.2        
Jan 21 12:35 SE 6 10 Clear CLR 64 48     57%     30.21        
Jan 21 12:15 SSE 3 10 Clear CLR 63 48     57%     30.22        
Jan 21 11:55 SSE 3 10 Clear CLR 62 47     58%     30.24        
Jan 21 11:35 SE 6 10 Clear CLR 62 47     59%     30.25        
Jan 21 11:15 S 6 10 Clear CLR 61 47     60%     30.26        
Jan 21 10:55 SSE 5 10 Clear CLR 60 46     61%     30.28        
Jan 21 10:35 ESE 5 10 Clear CLR 58 45     63%     30.29        
Jan 21 10:15 S 5 10 Clear CLR 57 46     65%     30.29        
Jan 21 09:55 ESE 3 10 Clear CLR 56 45     66%     30.29        
Jan 21 09:35 Calm 10 Clear CLR 54 45     71%     30.29        
Jan 21 09:15 Calm 10 Clear CLR 50 42     76%     30.29        
Jan 21 08:55 Calm 10 Clear CLR 46 40     81%     30.29        
Jan 21 08:35 Calm 10 Clear CLR 44 40     87%     30.29        
Jan 21 08:15 NNW 6 10 Clear CLR 41 39     93% 37   30.28        
Jan 21 07:55 Calm 10 Clear CLR 37 37     100%     30.27        
Jan 21 07:35 Calm 10 Clear CLR 33 33     100%     30.25        
Jan 21 07:15 Calm 10 Clear CLR 31 31     100%     30.24        
Jan 21 06:55 Calm 10 Clear CLR 30 30     100%     30.24        
Jan 21 06:35 Calm 10 Clear CLR 32 32     100%     30.25        
Jan 21 06:15 Calm 10 Clear CLR 32 32     100%     30.26        
Jan 21 05:55 Calm 10 Clear CLR 32 32     100%     30.25        
Jan 21 05:35 Calm 10 Clear CLR 32 32     100%     30.24        
Jan 21 05:15 Calm 10 Clear CLR 34 34     100%     30.23        
Jan 21 04:55 Calm 10 Clear CLR 33 33     100%     30.22        
Jan 21 04:35 Calm 10 Clear CLR 33 33     100%     30.23        
Jan 21 04:15 Calm 10 Clear CLR 35 35     100%     30.22        
Jan 21 03:55 N 3 10 Clear CLR 33 33     100% 30   30.23        
Notice The following observation data may not be complete
Jan 21 03:35   10 Clear CLR          %              
Jan 21 03:15 Calm 10 Clear CLR 35 35     100%     30.22        
Jan 21 02:55 Calm 10 Clear CLR 33 33     100%     30.22        
Jan 21 02:35 Calm 10 Clear CLR 34 34     100%     30.22        
Jan 21 02:15 Calm 10 Clear CLR 36 36     100%     30.23        
Jan 21 01:55 Calm 10 Clear CLR 37 36     99%     30.23        
Jan 21 01:35 Calm 10 Clear CLR 35 35     100%     30.23        
Jan 21 01:15 Calm 10 Clear CLR 35 35     100%     30.23        
Jan 21 00:55 Calm 10 Clear CLR 35 35     100%     30.23        
Jan 21 00:35 Calm 10 Clear CLR 34 34     100%     30.23        
Jan 21 00:15 Calm 10 Clear CLR 35 35     100%     30.24        
Jan 20 23:55 Calm 10 Clear CLR 35 35     100%     30.24        
Jan 20 23:35 Calm 10 Clear CLR 35 35     100%     30.24        
Jan 20 23:15 Calm 10 Clear CLR 36 36     100%     30.25        
Jan 20 22:55 Calm 10 Clear CLR 36 36     100%     30.25        
Jan 20 22:35 Calm 10 Clear CLR 38 37     97%     30.25        
Jan 20 22:15 Calm 10 Clear CLR 37 37     100%     30.26        
Jan 20 21:55 Calm 10 Clear CLR 37 37     98%     30.26        
Jan 20 21:35 Calm 10 Clear CLR 40 38     94%     30.26        
Jan 20 21:15 Calm 10 Clear CLR 39 38     94%     30.26        
Jan 20 20:55 Calm 10 Clear CLR 40 38     94%     30.27        
Jan 20 20:35 Calm 10 Clear CLR 41 39     91%     30.27        
Jan 20 20:15 Calm 10 Clear CLR 41 39     94%     30.27        
Jan 20 19:55 Calm 10 Clear CLR 40 38     93%     30.27        
Jan 20 19:35 Calm 10 Clear CLR 42 39     88%     30.26        
Jan 20 19:15 Calm 10 Clear CLR 44 40     84%     30.26        
Jan 20 18:55 Calm 10 Clear CLR 45 40     82%     30.26        
Jan 20 18:35 Calm 10 Clear CLR 45 40     81%     30.26        
Jan 20 18:15 Calm 10 Clear CLR 47 41     80%     30.25        
Jan 20 17:55 Calm 10 Clear CLR 49 41     73%     30.25        
Notice The following observation data may not be complete
Jan 20 17:35   10 Clear CLR          %              
Jan 20 17:15 S 3 10 Clear CLR 54 41     61%     30.24        
Jan 20 16:55 Calm 10 Clear CLR 56 41     57%     30.24        
Jan 20 16:35 SSW 5 10 Clear CLR 58 41     53%     30.24        
Jan 20 16:15 S 3 10 Clear CLR 59 42     52%     30.24        
Jan 20 15:55 S 3 10 Clear CLR 60 41     50%     30.24        
Jan 20 15:35 S 5 10 Clear CLR 60 41     50%     30.24        
Jan 20 15:15 SW 6 10 Clear CLR 60 41     49%     30.24        
Jan 20 14:55 Calm 10 Clear CLR 60 40     47%     30.24        
Jan 20 14:35 WSW 6 10 Clear CLR 59 40     49%     30.24        
Jan 20 14:15 SW 7 10 Clear CLR 61 41     48%     30.23        
Jan 20 13:55 S 5 10 Clear CLR 60 39     47%     30.24        
Jan 20 13:35 ESE 3 10 Clear CLR 59 38     46%     30.24        
Jun 12 07:15 Calm 10 Mostly Cloudy BKN004 74 72     94%   75 30.18        
Jun 12 05:35 Calm 10 Mostly Cloudy BKN011 70 69     96%     30.16        
Jun 12 01:15 Calm 10 Partly Cloudy SCT033 72 71     96%   74 30.15        
Jun 11 17:55 ESE 3 10 Clear CLR 85 69     60%   89 30.09        
Jun 11 16:55 SE 6 10 Clear   87 68     54%   91 30.11        
Jun 11 16:15 SE 5 10 Clear CLR 87 68     54%   91 30.13        
Jun 11 14:55 SE 6 10 Clear   86 68     54%   90 30.14        
Notice The following observation data may not be complete
Jun 11 05:15   10 Clear CLR          %              
Jun 10 10:15 SE 3 10 Clear CLR 81 62     53%   82 30.11        
Notice The following observation data may not be complete
Jun 09 16:15   10 Partly Cloudy SCT055 SCT065          %              
Jun 08 17:35 NNW 3 10 Clear CLR 80 57     46%   79 29.86        
Notice The following observation data may not be complete
Jun 08 12:15   10 Clear CLR          %              
Notice The following observation data may not be complete
Jun 08 11:15   10 Partly Cloudy SCT035          %              
Jun 08 09:15 SE 3 10 Partly Cloudy SCT041 69 60     71%     29.93        
Notice The following observation data may not be complete
Jun 08 07:55   10 Partly Cloudy SCT040 SCT090          %              
Jun 08 07:35 Calm 10 Clear CLR 65 59     83%     29.92        
Jun 07 20:55 N 5 10 Clear CLR 72 59     63%   72 29.85        
Jun 07 15:15 E 7 10 Partly Cloudy SCT032 SCT060 78 67     68%   79 29.79        
Jun 07 10:55 E 6 10 Mostly Cloudy BKN024 BKN031 76 66     73%   76 29.81        
Jun 06 03:35 Calm 5 Fog/Mist OVC004 71 71     99%   73 29.79        
Jun 06 00:55 Calm 7 Cloudy OVC002 72 71     98%   73 29.83       0
Notice The following observation data may not be complete
Jun 05 18:35   10 Partly Cloudy SCT012          %              
Jun 05 16:35 WSW 5 10 Partly Cloudy SCT018 76 71     82%   78 29.83        
Jun 05 15:15 S 9 10 Partly Cloudy SCT040 78 70     75%   80 29.81